Date,TemperatureHighF,TemperatureAvgF,TemperatureLowF,DewpointHighF,DewpointAvgF,DewpointLowF,HumidityHigh,HumidityAvg,HumidityLow,PressureMaxIn,PressureMinIn,WindSpeedMaxMPH,WindSpeedAvgMPH,GustSpeedMaxMPH,PrecipitationSumIn
2013-1-1,32.3,19.0,5.4,31.2,14.1,3.1,100,81,60,29.32,29.01,19,4,25,0.00
2013-1-2,19.0,7.9,-2.1,19.0,7.5,-2.4,100,98,88,29.65,29.19,15,3,19,0.00
2013-1-3,15.3,3.5,-7.7,14.1,1.4,-7.7,100,91,72,29.65,29.26,31,4,31,0.01
2013-1-4,35.7,27.1,13.3,30.9,23.9,12.7,100,89,68,29.26,29.12,28,7,31,0.00
2013-1-5,33.9,25.8,13.3,31.1,19.6,12.9,100,79,54,29.62,29.17,16,2,18,0.00
2013-1-6,35.2,28.0,13.8,33.7,26.1,13.8,100,93,80,29.55,29.24,24,8,24,0.00
2013-1-7,30.2,19.9,14.2,22.0,18.0,12.7,100,93,64,29.75,29.37,26,4,28,0.00
2013-1-8,38.6,28.2,21.2,26.7,24.1,21.2,100,86,59,29.73,29.54,39,9,39,0.00
2013-1-9,43.7,32.9,20.1,33.9,26.8,20.1,100,80,48,29.73,29.28,29,8,31,0.00
2013-1-10,44.9,36.9,27.3,33.7,26.8,24.2,99,68,48,29.93,29.42,30,4,30,0.00
2013-1-11,39.0,31.5,21.8,37.5,28.0,21.8,100,89,50,29.93,29.46,20,3,20,0.01
2013-1-12,45.7,41.0,35.9,45.4,40.6,35.9,100,98,88,29.50,29.41,25,7,25,0.00
2013-1-13,48.1,44.2,39.9,47.9,44.0,39.5,100,99,93,29.48,29.26,35,10,35,0.00
2013-1-14,53.6,42.9,33.1,49.4,35.7,24.7,100,77,47,29.68,29.17,33,7,33,0.00
2013-1-15,39.1,31.0,26.1,27.6,24.7,20.8,94,78,53,29.72,29.61,9,1,9,0.00
2013-1-16,30.8,29.1,26.1,30.8,28.7,24.8,100,98,86,29.61,29.15,23,4,24,0.00
2013-1-17,34.9,22.0,6.6,32.5,17.1,1.9,100,82,47,29.57,29.15,24,6,26,0.00
2013-1-18,21.9,11.0,0.3,12.0,2.2,-3.9,91,69,39,29.73,29.52,17,3,18,0.00
2013-1-19,40.1,30.3,18.2,26.6,21.5,11.0,100,71,56,29.59,29.09,28,9,28,0.00
2013-1-20,40.9,32.9,16.3,35.7,22.1,3.0,100,65,49,29.34,28.78,32,8,34,0.00
2013-1-21,19.9,13.6,6.1,15.2,8.8,1.6,100,82,57,29.42,29.18,17,2,19,0.00
2013-1-22,19.9,9.1,3.8,15.7,6.3,-4.6,100,89,61,29.44,29.17,19,2,20,0.00
2013-1-23,7.2,-2.2,-10.2,0.9,-6.3,-11.4,100,84,56,29.56,29.44,15,1,20,0.00
2013-1-24,16.4,0.5,-12.3,3.7,-5.3,-12.3,100,79,47,29.70,29.50,28,2,28,0.00
2013-1-25,14.6,5.7,-2.7,8.0,0.6,-3.9,100,80,53,29.73,29.46,11,1,11,0.00
2013-1-26,15.9,9.1,1.8,8.3,4.9,1.1,100,84,59,29.66,29.44,13,2,13,0.00
2013-1-27,22.7,12.3,5.0,10.4,5.5,1.8,100,76,44,29.88,29.65,12,1,13,0.00
2013-1-28,24.7,16.9,6.1,24.7,16.1,3.2,100,97,71,29.82,29.34,19,1,25,0.00
2013-1-29,36.2,28.2,22.2,36.2,28.2,22.1,100,100,100,29.53,29.34,20,1,20,0.15
2013-1-30,55.4,46.5,35.5,51.7,44.9,35.4,100,95,85,29.34,28.70,28,7,28,0.12
2013-1-31,55.1,39.3,22.6,51.6,30.4,12.3,95,71,50,28.94,28.24,36,9,36,0.37
2013-2-1,22.8,18.7,11.4,16.1,11.7,6.4,97,75,56,29.50,28.94,21,4,21,0.73
2013-2-2,21.1,15.5,8.3,18.5,12.8,7.2,100,90,68,29.55,29.39,23,4,25,0.00
2013-2-3,28.2,17.8,7.7,21.1,15.0,7.7,100,90,56,29.39,29.12,10,1,13,0.00
2013-2-4,25.7,17.9,8.0,18.6,7.9,-3.9,100,70,28,29.30,29.11,25,3,26,0.00
2013-2-5,24.4,13.5,1.7,10.6,4.3,-2.6,85,67,46,29.41,29.26,10,1,10,0.00
2013-2-6,29.9,21.7,9.1,27.3,12.3,-2.0,95,68,41,29.75,29.23,23,6,23,0.00
2013-2-7,15.4,8.8,2.8,7.8,2.0,-2.8,91,74,54,29.96,29.75,15,2,15,0.00
2013-2-8,21.8,16.2,9.9,21.6,15.8,7.4,100,98,89,29.78,29.29,21,1,22,0.00
2013-2-9,18.1,11.9,6.1,17.7,7.4,1.4,100,83,55,29.72,29.30,27,7,29,0.00
2013-2-10,31.4,16.1,-2.1,14.7,5.7,-2.2,100,67,34,29.84,29.60,15,2,15,0.00
2013-2-11,40.4,32.9,19.2,40.2,25.6,4.9,100,78,36,29.60,28.98,24,6,25,0.01
2013-2-12,43.3,37.2,32.2,31.3,28.8,23.9,78,72,59,29.22,28.98,19,5,20,0.00
2013-2-13,38.7,33.9,29.6,27.5,25.1,23.3,89,70,56,29.22,29.12,14,3,14,0.00
2013-2-14,42.4,33.2,28.2,33.4,26.2,21.1,100,77,45,29.32,29.12,17,2,18,0.00
2013-2-15,45.3,37.4,32.3,34.1,27.3,21.4,100,69,42,29.34,29.21,23,6,23,0.00
2013-2-16,33.1,26.3,18.4,22.6,16.5,9.2,89,67,50,29.39,29.28,15,4,16,0.00
2013-2-17,18.7,12.8,10.2,12.6,8.1,3.6,100,82,52,29.29,29.05,24,6,26,0.00
2013-2-18,28.8,16.1,4.1,8.4,2.2,-3.4,96,59,27,29.52,29.23,16,2,17,0.00
2013-2-19,43.9,29.7,13.7,35.1,19.0,2.9,100,68,34,29.50,28.97,25,3,25,0.18
2013-2-20,41.0,28.4,23.4,34.0,22.8,14.7,100,81,47,29.15,28.97,17,3,19,0.01
2013-2-21,26.6,18.4,10.9,19.0,14.0,7.9,100,84,52,29.76,29.15,20,2,22,0.00
2013-2-22,38.4,27.7,17.2,30.3,23.7,17.0,100,86,61,29.80,29.58,13,1,15,0.00
2013-2-23,36.7,34.2,32.5,35.3,30.7,24.7,100,88,70,29.58,29.26,22,4,22,0.00
2013-2-24,34.9,32.3,15.0,34.8,31.7,-69.0,100,99,1,29.34,29.16,13,1,13,0.07
2013-2-25,39.8,32.7,29.7,38.2,32.4,29.7,100,99,86,29.62,29.34,6,0,6,0.02
2013-2-26,43.9,34.7,29.6,43.5,33.0,28.4,100,94,68,29.69,29.46,11,0,12,0.00
2013-2-27,38.8,35.6,32.4,36.6,32.8,27.5,100,90,70,29.47,29.01,26,2,26,0.03
2013-2-28,41.1,33.0,31.4,40.8,32.9,31.4,100,100,94,29.01,28.95,14,1,14,0.02
2013-3-1,31.6,31.2,30.6,31.6,31.2,30.5,100,100,100,29.16,29.14,15,3,15,0.00
2013-3-2,33.2,28.6,21.6,30.9,27.7,21.6,100,97,79,29.17,29.11,15,3,15,0.00
2013-3-3,35.4,26.5,20.7,28.4,24.7,20.6,100,93,69,29.14,29.06,8,1,8,0.05
2013-3-4,37.0,26.7,23.0,27.8,24.4,21.4,100,92,58,29.28,29.09,14,1,14,0.00
2013-3-5,37.6,28.2,23.2,30.7,26.3,23.0,100,93,67,29.49,29.28,15,2,15,0.00
2013-3-6,41.4,33.9,27.0,39.0,29.2,26.1,100,84,59,29.56,29.46,15,1,15,0.00
2013-3-7,36.9,32.5,29.3,29.6,26.9,22.7,100,80,58,29.59,29.52,19,4,19,0.00
2013-3-8,39.3,31.3,26.6,29.8,28.2,24.7,100,89,64,29.71,29.53,24,6,24,0.00
2013-3-9,48.2,34.9,24.1,29.5,25.2,20.9,100,71,35,29.74,29.67,15,2,16,0.00
2013-3-10,53.0,41.9,25.0,27.8,24.4,20.1,100,56,28,29.72,29.53,25,5,25,0.00
2013-3-11,48.7,45.1,40.2,34.6,31.9,27.7,73,60,46,29.58,29.35,29,7,30,0.00
2013-3-12,50.9,46.3,35.9,49.4,44.0,33.7,100,92,60,29.37,29.07,20,4,21,1.53
2013-3-13,44.2,36.3,30.6,40.9,34.5,26.8,100,94,67,29.23,29.13,14,1,14,0.02
2013-3-14,33.3,24.9,17.7,27.6,17.2,8.8,96,73,57,29.30,29.13,21,6,23,0.00
2013-3-15,118.4,23.6,13.9,31.0,18.0,8.6,100,80,1,29.31,21.81,21,4,23,0.00
2013-3-16,30.0,22.2,15.4,22.4,17.5,13.4,100,83,56,29.31,29.12,12,2,16,0.00
2013-3-17,28.1,21.2,14.1,20.6,11.7,6.2,100,68,45,29.71,29.30,18,3,21,0.00
2013-3-18,34.0,23.4,9.7,26.4,11.2,4.8,90,61,36,29.81,29.48,14,1,14,0.00
2013-3-19,34.6,29.7,26.3,34.4,29.7,25.9,100,100,90,29.48,29.10,6,0,14,0.00
2013-3-20,38.5,29.4,21.4,30.1,24.1,18.3,100,82,60,29.12,29.04,22,4,23,0.00
2013-3-21,42.7,29.8,22.2,25.3,19.5,13.6,96,68,34,29.12,29.01,21,6,23,0.01
2013-3-22,41.7,28.2,15.3,29.8,20.9,14.2,100,76,44,29.14,29.03,17,2,18,0.00
2013-3-23,38.9,33.0,25.9,26.7,22.4,18.8,86,66,46,29.21,29.07,23,6,25,0.00
2013-3-24,45.7,35.3,26.6,28.1,25.7,21.0,93,69,46,29.26,29.18,19,3,19,0.00
2013-3-25,45.2,34.2,24.5,33.2,28.7,23.0,100,82,52,29.20,28.97,15,2,15,0.00
2013-3-26,46.6,37.7,31.7,31.7,27.8,22.4,96,70,42,29.20,29.01,20,5,20,0.00
2013-3-27,51.9,40.9,32.0,33.3,29.1,-69.0,87,64,42,29.33,29.17,16,3,16,0.00
2013-3-28,53.7,40.9,33.6,39.8,35.2,31.4,100,83,49,29.45,29.33,15,2,16,0.00
2013-3-29,49.9,42.1,34.3,39.4,34.1,29.5,100,75,52,29.47,29.42,17,2,17,0.00
2013-3-30,54.2,41.8,28.4,37.2,25.4,15.2,100,58,22,29.51,29.45,14,2,14,0.00
2013-3-31,57.6,43.8,25.9,42.3,26.0,17.4,100,53,28,29.49,29.12,22,4,22,0.05
2013-4-1,48.9,39.6,28.4,45.9,31.1,11.7,100,76,31,29.19,28.92,32,6,32,0.03
2013-4-2,34.4,28.9,20.9,20.3,14.3,8.5,78,55,37,29.30,29.18,24,5,28,0.03
2013-4-3,41.4,32.9,24.4,16.8,12.1,4.6,66,43,23,29.59,29.29,28,8,28,0.00
2013-4-4,54.0,39.5,24.5,22.9,18.2,12.9,67,44,26,29.64,29.29,23,6,25,0.00
2013-4-5,50.9,42.3,32.2,31.0,23.8,16.7,70,49,33,29.37,29.18,31,10,31,0.00
2013-4-6,45.2,32.3,23.0,19.5,11.9,5.8,83,45,23,29.68,29.37,22,5,22,0.00
2013-4-7,59.6,47.4,29.4,37.9,21.6,9.2,60,36,24,29.63,29.24,33,6,33,0.00
2013-4-8,57.7,47.9,41.8,38.1,33.8,30.7,82,59,39,29.55,29.29,22,4,28,0.00
2013-4-9,58.0,49.4,40.6,48.4,41.8,33.9,100,77,51,29.44,29.18,25,4,25,0.10
2013-4-10,50.4,44.2,40.4,47.2,42.9,40.4,100,95,81,29.42,29.31,12,1,14,0.27
2013-4-11,41.4,35.7,32.8,41.2,25.8,9.1,100,68,32,29.59,29.33,20,5,20,0.01
2013-4-12,35.1,32.7,15.0,34.9,30.2,-69.0,100,92,1,29.58,29.19,22,1,22,0.18
2013-4-13,51.3,41.8,33.8,42.4,37.0,33.8,100,85,61,29.30,29.17,24,7,24,0.00
2013-4-14,48.2,41.0,32.9,41.8,35.5,29.4,100,81,57,29.62,29.28,17,4,18,0.05
2013-4-15,61.0,45.8,26.4,40.9,32.4,26.4,100,66,35,29.74,29.62,19,3,19,0.00
2013-4-16,57.4,53.3,48.7,55.0,42.8,31.4,94,69,49,29.65,29.37,33,7,33,0.03
2013-4-17,59.1,49.2,39.3,41.4,33.0,27.7,76,55,34,29.76,29.51,19,5,19,0.00
2013-4-18,64.3,50.1,35.4,43.4,35.5,28.7,93,60,35,29.76,29.35,28,4,34,0.01
2013-4-19,76.4,63.0,46.6,59.7,54.5,43.0,96,75,51,29.37,28.93,37,8,41,0.50
2013-4-20,53.1,44.5,35.0,43.0,28.7,20.7,87,55,34,29.71,29.11,29,8,35,0.00
2013-4-21,50.0,37.8,27.4,23.2,19.7,15.3,72,50,26,30.11,29.71,22,5,22,0.00
2013-4-22,59.7,43.8,26.4,30.0,21.2,13.9,90,47,19,30.12,29.95,19,4,23,0.00
2013-4-23,55.8,44.6,32.8,39.3,31.7,22.0,84,61,46,29.95,29.56,23,5,24,0.00
2013-4-24,73.2,56.5,37.4,50.8,41.8,36.4,100,63,30,29.56,29.11,22,5,23,0.01
2013-4-25,63.2,50.1,40.8,54.0,31.5,22.6,84,51,26,29.72,29.12,26,4,31,0.06
2013-4-26,58.7,45.8,35.7,37.4,33.0,27.5,85,62,39,29.87,29.69,15,2,17,0.00
2013-4-27,65.7,49.8,33.0,43.0,32.4,23.8,100,58,23,29.87,29.73,10,2,11,0.00
2013-4-28,75.2,57.7,35.8,39.1,33.0,27.0,83,43,19,29.74,29.58,19,3,25,0.00
2013-4-29,66.4,59.1,55.1,46.2,39.2,32.0,64,48,38,29.66,29.60,23,6,23,0.00
2013-4-30,74.1,62.1,52.7,47.9,43.2,38.9,65,51,36,29.74,29.66,19,5,19,0.00
2013-5-1,79.1,67.6,54.8,45.9,36.7,27.8,55,33,24,29.92,29.72,22,6,22,0.00
2013-5-2,81.8,68.2,56.4,46.3,41.0,29.8,56,38,24,29.92,29.80,26,6,29,0.00
2013-5-3,76.3,62.3,49.6,40.9,35.1,26.1,55,37,22,29.95,29.80,24,4,24,0.00
2013-5-4,79.3,66.0,51.0,47.6,42.3,30.2,71,44,25,29.81,29.67,21,5,22,0.00
2013-5-5,81.3,66.8,53.2,41.5,35.2,27.1,56,33,19,29.72,29.62,23,7,23,0.00
2013-5-6,79.3,66.9,54.0,45.7,31.8,11.7,62,32,9,29.68,29.55,27,9,27,0.00
2013-5-7,85.3,69.6,56.8,53.0,41.8,15.4,79,43,9,29.63,29.54,22,6,22,0.00
2013-5-8,78.5,65.0,15.0,62.7,49.6,-69.0,97,64,1,29.65,29.49,19,3,22,0.28
2013-5-9,75.3,64.2,55.9,62.7,53.4,46.8,94,70,39,29.49,29.35,18,3,18,0.01
2013-5-10,72.6,62.3,54.2,60.6,56.7,51.3,93,83,56,29.47,29.27,15,2,15,0.01
2013-5-11,70.6,63.7,55.6,65.8,57.3,47.6,91,80,55,29.29,29.11,20,5,20,0.16
2013-5-12,60.3,53.1,42.9,50.9,39.0,22.6,94,62,26,29.23,29.11,29,4,29,0.00
2013-5-13,52.3,45.5,39.9,37.0,29.8,25.9,84,55,39,29.49,29.22,25,5,25,0.00
2013-5-14,61.9,47.7,33.2,40.0,31.9,24.5,100,60,27,29.54,29.45,16,2,16,0.00
2013-5-15,63.6,50.1,32.9,52.1,39.5,28.7,100,71,32,29.47,29.06,20,3,23,0.06
2013-5-16,76.1,61.6,49.7,51.1,42.0,32.2,94,54,22,29.35,29.07,27,5,27,0.00
2013-5-17,69.6,56.0,45.9,46.7,41.3,37.8,94,61,32,29.66,29.35,16,4,18,0.00
2013-5-18,76.8,59.1,40.6,50.8,41.4,30.7,100,59,23,29.77,29.66,12,2,12,0.00
2013-5-19,67.1,59.3,55.0,56.3,51.7,40.2,92,77,53,29.75,29.57,22,5,23,0.19
2013-5-20,75.6,62.6,56.2,67.2,58.0,52.1,91,85,70,29.57,29.44,21,4,22,0.02
2013-5-21,74.2,62.4,57.3,68.9,56.4,48.5,90,81,68,29.45,29.27,23,5,23,0.88
2013-5-22,79.7,68.5,57.5,72.0,62.7,48.1,90,82,68,29.35,29.23,22,6,22,0.13
2013-5-23,78.8,70.7,61.3,68.4,64.4,53.0,90,81,62,29.29,29.21,23,6,25,0.23
2013-5-24,62.3,48.9,44.1,55.7,45.0,40.1,96,87,74,29.47,29.19,23,6,23,0.60
2013-5-25,44.9,42.9,41.1,41.4,40.2,38.2,94,90,85,29.46,29.33,31,9,32,1.07
2013-5-26,52.9,44.5,41.1,50.2,43.3,38.3,100,96,87,29.53,29.29,35,6,35,0.39
2013-5-27,71.1,55.4,37.7,51.8,40.3,33.1,100,63,28,29.62,29.49,17,3,19,0.01
2013-5-28,74.8,60.5,41.4,50.9,44.1,37.5,100,60,28,29.68,29.57,18,3,19,0.00
2013-5-29,70.1,62.9,55.8,66.6,58.6,49.6,92,86,66,29.57,29.40,26,8,26,0.27
2013-5-30,90.6,75.4,62.0,85.4,64.7,53.7,92,72,39,29.59,29.45,22,4,22,0.00
2013-5-31,90.7,79.4,65.4,70.5,64.3,55.3,93,63,32,29.58,29.43,19,5,21,0.00
2013-6-1,87.8,78.2,66.7,72.7,66.5,60.4,93,69,47,29.46,29.31,23,5,25,0.00
2013-6-2,85.3,72.9,67.3,74.8,67.6,58.2,93,84,54,29.34,29.18,26,7,26,0.65
2013-6-3,74.4,67.3,54.1,59.7,52.6,34.6,82,61,39,29.35,29.27,23,7,23,0.00
2013-6-4,53.2,49.9,47.0,43.8,40.8,39.6,88,71,60,29.35,29.34,7,2,7,0.00
2013-6-6,68.2,58.5,53.8,54.7,50.9,44.0,94,77,47,29.64,29.53,11,2,11,0.03
2013-6-7,59.4,54.6,52.6,56.5,50.6,46.0,92,86,77,29.53,29.33,10,1,11,0.48
2013-6-8,62.2,57.5,53.1,59.7,52.4,44.2,93,83,68,29.50,29.23,12,2,12,0.13
2013-6-9,81.3,66.0,56.8,70.0,55.2,48.4,89,70,38,29.66,29.49,17,3,17,0.01
2013-6-10,74.8,63.5,53.6,63.6,56.7,49.8,92,80,48,29.67,29.43,15,1,16,0.32
2013-6-11,63.7,58.5,56.6,61.1,52.0,44.6,92,79,64,29.43,29.05,13,1,15,1.06
2013-6-12,70.3,60.0,54.2,56.8,50.9,42.8,94,73,56,29.33,29.09,29,6,29,0.17
2013-6-13,57.5,56.8,55.8,55.9,54.9,53.5,95,93,91,29.30,29.26,7,1,7,0.00
2013-6-15,79.8,70.1,55.3,51.7,45.5,40.2,72,43,27,29.47,29.39,12,2,12,0.00
2013-6-16,67.9,62.7,58.0,61.4,52.7,43.6,91,71,50,29.40,29.18,29,8,29,0.08
2013-6-17,79.0,65.3,55.8,65.0,58.2,49.1,91,79,45,29.43,29.23,30,3,30,0.36
2013-6-18,73.3,60.9,53.8,56.1,51.1,43.6,92,73,39,29.47,29.39,12,2,12,0.03
2013-6-19,70.9,60.3,49.8,49.7,42.2,31.9,83,54,26,29.65,29.46,18,4,18,0.00
2013-6-20,78.3,63.5,45.7,55.3,48.4,43.3,95,62,33,29.75,29.64,13,2,14,0.00
2013-6-21,82.9,69.3,52.2,60.0,53.6,47.7,91,61,35,29.77,29.66,12,2,13,0.00
2013-6-22,78.1,68.4,60.5,69.0,60.6,52.1,90,77,59,29.70,29.57,22,4,22,0.20
2013-6-23,85.3,73.5,65.6,77.4,67.8,51.2,92,83,61,29.59,29.45,25,8,25,0.57
2013-6-24,87.7,75.7,68.2,75.1,70.4,63.8,94,84,59,29.52,29.39,23,8,23,0.63
2013-6-25,84.7,72.6,67.4,73.8,66.3,55.5,93,81,63,29.44,29.25,25,7,25,0.71
2013-6-26,77.3,71.1,67.8,74.5,63.6,54.4,93,78,61,29.31,29.25,21,4,21,0.08
2013-6-27,88.7,75.2,15.0,77.0,66.9,-69.0,94,78,1,29.32,29.22,18,3,20,0.06
2013-6-28,72.4,66.9,58.4,69.6,60.0,46.5,93,79,57,29.22,28.87,23,4,23,0.75
2013-6-29,75.8,68.8,65.1,71.5,64.9,60.3,91,87,80,29.18,29.08,14,4,15,0.04
2013-6-30,86.9,72.5,62.4,70.3,62.4,53.0,93,72,47,29.44,29.17,15,2,15,0.17
2013-7-1,70.6,66.0,15.0,68.4,62.4,-69.0,95,89,1,29.58,29.43,11,2,15,0.24
2013-7-2,83.3,65.3,15.0,77.0,54.5,-69.0,96,72,1,29.63,29.56,13,1,13,0.32
2013-7-3,87.1,76.4,66.9,78.5,68.2,47.3,92,77,49,29.68,29.60,20,5,21,0.32
2013-7-4,87.0,77.3,70.4,78.8,71.3,55.7,94,82,59,29.70,29.61,17,4,17,0.14
2013-7-5,88.7,77.5,71.3,79.3,72.6,63.6,95,85,55,29.68,29.56,26,4,26,1.13
2013-7-6,92.2,79.7,71.9,78.7,69.3,60.5,96,73,39,29.62,29.52,19,3,19,0.00
2013-7-7,84.4,75.1,68.7,75.5,68.2,-69.0,95,80,57,29.55,29.44,13,2,13,0.09
2013-7-8,81.6,72.1,68.7,73.4,65.3,57.0,97,80,61,29.55,29.43,10,2,12,0.21
2013-7-9,86.5,75.6,65.9,75.8,68.7,62.0,96,80,54,29.59,29.49,17,2,17,0.00
2013-7-10,80.4,75.2,72.8,78.6,73.0,68.7,97,93,82,29.49,29.24,22,7,22,0.16
2013-7-11,81.7,73.7,15.0,74.0,63.2,-69.0,97,72,1,29.52,29.24,17,4,19,0.09
2013-7-12,79.2,69.3,60.8,64.7,59.1,54.2,97,72,45,29.70,29.52,15,4,16,0.09
2013-7-13,82.3,72.3,60.4,70.9,64.1,56.8,96,77,55,29.81,29.70,16,3,17,0.00
2013-7-14,89.9,78.0,70.1,75.4,71.3,67.4,97,81,51,29.83,29.73,16,3,16,0.00
2013-7-15,94.4,80.8,68.8,78.2,68.1,61.3,97,69,37,29.75,29.69,13,1,13,0.00
2013-7-16,90.4,80.3,68.4,73.8,68.3,64.5,96,69,47,29.77,29.69,13,2,14,0.00
2013-7-17,93.8,81.2,69.2,75.3,70.4,66.9,98,72,45,29.71,29.51,16,4,17,0.20
2013-7-18,91.7,79.4,70.4,79.0,72.6,65.6,97,81,52,29.58,29.44,14,2,15,0.02
2013-7-19,93.6,81.8,73.9,76.6,72.2,64.4,97,75,43,29.44,29.19,22,8,22,0.09
2013-7-20,84.1,76.1,67.1,73.0,66.2,57.4,95,73,42,29.35,29.17,26,8,26,0.04
2013-7-21,77.3,67.8,60.2,63.3,56.2,52.0,95,68,47,29.53,29.35,15,4,16,0.00
2013-7-22,83.6,70.1,57.6,70.3,60.9,53.7,98,74,52,29.53,29.35,16,1,19,0.58
2013-7-23,82.1,72.3,67.8,73.5,64.2,52.3,97,76,56,29.35,29.07,16,3,16,0.40
2013-7-24,72.3,65.7,52.7,69.7,58.8,46.3,98,80,55,29.52,29.07,19,4,22,0.15
2013-7-25,71.6,60.7,49.4,55.8,50.3,45.1,98,71,49,29.63,29.52,13,4,17,0.00
2013-7-26,75.1,64.3,56.1,61.0,56.9,51.6,97,78,54,29.59,29.52,11,3,16,0.00
2013-7-27,82.8,70.1,55.1,64.8,59.0,54.2,98,71,41,29.55,29.45,15,3,16,0.00
2013-7-28,79.7,72.5,67.4,70.2,65.1,61.2,96,78,64,29.47,29.42,13,5,16,0.00
2013-7-29,80.7,71.5,65.7,69.2,61.5,52.3,95,73,38,29.58,29.44,11,3,16,0.51
2013-7-30,80.2,69.2,58.7,63.6,58.1,53.4,97,70,42,29.65,29.57,9,2,11,0.00
2013-7-31,81.4,70.2,57.4,64.8,59.4,56.0,98,71,46,29.64,29.52,12,3,17,0.00
2013-8-1,79.2,69.5,64.8,67.7,61.9,55.9,98,78,60,29.52,29.31,16,6,22,0.36
2013-8-2,82.0,71.9,61.9,72.5,57.4,51.6,95,63,37,29.35,29.28,13,3,16,0.00
2013-8-3,78.1,71.5,60.1,64.3,56.5,52.1,95,61,43,29.35,29.27,13,3,19,0.20
2013-8-4,73.8,65.6,57.7,62.9,55.3,48.2,98,72,44,29.43,29.31,18,4,23,0.00
2013-8-5,74.9,63.9,51.9,54.5,46.4,34.7,84,56,32,29.54,29.43,16,4,21,0.00
2013-8-6,79.2,65.3,52.3,57.6,51.2,47.3,95,64,40,29.62,29.52,12,2,13,0.00
2013-8-7,79.2,71.2,60.8,62.3,58.5,53.2,82,65,51,29.62,29.50,14,5,23,0.00
2013-8-8,82.5,73.9,69.1,72.9,67.6,60.7,98,82,58,29.50,29.45,17,8,22,0.00
2013-8-9,80.0,73.2,67.7,75.5,69.9,57.3,100,90,66,29.46,29.29,15,4,21,0.22
2013-8-10,76.7,69.4,59.5,67.0,53.3,42.9,99,60,31,29.53,29.31,19,5,19,0.01
2013-8-11,80.7,67.9,54.8,59.8,54.4,47.1,98,64,40,29.59,29.49,11,2,11,0.01
2013-8-12,82.3,68.4,58.4,64.8,57.2,50.9,94,69,41,29.52,29.38,14,2,14,0.02
2013-8-13,73.8,67.2,63.2,68.8,62.4,55.7,100,85,61,29.39,29.18,23,6,23,0.07
2013-8-14,70.6,61.5,54.1,62.9,53.4,49.3,99,76,56,29.45,29.18,17,4,22,0.05
2013-8-15,59.9,56.2,53.5,51.4,49.2,47.3,91,78,66,29.46,29.45,8,2,8,0.01
2013-8-22,73.2,69.0,66.2,70.0,67.1,64.2,99,94,80,29.39,29.35,6,1,6,0.04
2013-8-23,73.1,65.0,56.8,65.4,55.7,48.2,100,75,45,29.67,29.39,20,4,20,0.01
2013-8-24,80.9,65.5,52.1,63.1,53.6,42.5,100,71,30,29.85,29.67,10,2,10,0.00
2013-8-25,79.2,66.5,51.4,63.3,56.0,48.7,100,73,40,29.86,29.62,15,3,16,0.03
2013-8-26,74.3,69.4,64.0,71.9,65.9,61.4,99,89,71,29.63,29.39,28,8,28,0.13
2013-8-27,85.3,73.2,66.8,78.9,65.6,54.4,98,78,53,29.44,29.37,9,1,10,0.10
2013-8-28,86.8,74.0,65.4,78.8,65.2,50.0,99,75,48,29.46,29.38,12,1,13,0.03
2013-8-29,82.6,71.9,64.4,70.2,65.4,61.4,99,82,50,29.57,29.45,12,2,13,0.02
2013-8-30,83.3,73.9,64.4,71.2,65.9,53.0,98,77,58,29.51,29.29,13,5,19,0.01
2013-8-31,75.8,71.2,15.0,74.9,66.5,-69.0,99,87,1,29.33,29.26,21,3,21,0.20
2013-9-1,83.3,73.9,67.6,75.9,65.2,54.2,99,75,59,29.40,29.31,9,1,9,0.00
2013-9-2,81.3,72.3,63.4,73.5,68.8,59.1,100,90,66,29.33,29.19,25,5,26,0.53
2013-9-3,75.0,68.1,60.8,66.1,61.1,56.5,100,79,57,29.31,29.20,20,6,22,0.00
2013-9-4,79.9,66.9,58.3,62.8,58.1,51.9,100,77,42,29.42,29.30,20,3,20,0.00
2013-9-5,66.8,59.1,48.9,60.7,46.8,36.7,100,67,35,29.64,29.37,17,3,18,0.06
2013-9-6,69.0,57.1,41.6,50.0,42.9,34.1,95,62,34,29.73,29.53,21,5,21,0.00
2013-9-7,66.6,60.7,55.0,55.5,49.5,45.8,75,67,58,29.53,29.32,22,11,23,0.00
2013-9-8,64.8,58.4,49.1,58.2,46.9,36.8,100,68,39,29.57,29.25,23,6,28,0.16
2013-9-9,67.6,56.2,42.8,50.6,45.0,38.8,100,68,45,29.66,29.53,20,6,21,0.00
2013-9-10,73.9,65.9,59.6,73.6,62.8,50.5,100,90,70,29.55,29.45,28,11,28,0.76
2013-9-11,90.1,78.4,70.9,76.4,72.7,65.7,99,84,54,29.53,29.44,32,11,32,0.07
2013-9-12,82.3,72.2,67.2,77.5,70.0,64.0,100,93,64,29.45,29.15,23,7,25,0.24
2013-9-13,68.8,59.8,54.0,68.1,58.1,50.5,100,94,76,29.35,29.14,19,4,19,0.01
2013-9-14,65.6,55.8,48.4,51.9,49.7,47.2,100,81,53,29.55,29.35,15,3,17,0.00
2013-9-15,53.4,51.2,45.7,50.8,48.3,45.6,100,90,83,29.59,29.53,16,6,16,0.00
2013-9-16,56.4,50.6,40.8,56.2,45.1,34.6,100,83,54,29.79,29.49,21,4,21,0.08
2013-9-17,66.4,51.1,40.2,50.7,41.0,35.4,100,72,34,29.95,29.77,11,2,12,0.00
2013-9-18,71.0,57.4,42.1,50.3,46.4,40.2,100,70,43,29.77,29.61,13,4,18,0.00
2013-9-19,77.4,62.5,46.5,56.0,50.5,44.1,100,68,35,29.63,29.54,15,3,18,0.00
2013-9-20,79.3,65.7,50.5,58.7,53.3,46.6,100,68,34,29.57,29.41,19,4,19,0.00
2013-9-21,75.8,66.5,59.4,64.9,57.8,47.1,100,76,39,29.43,29.09,31,6,31,0.56
2013-9-22,66.4,57.4,45.4,61.5,50.4,41.2,98,78,56,29.37,29.06,19,6,22,0.22
2013-9-23,56.4,48.6,40.5,44.0,39.7,37.6,98,72,52,29.52,29.36,22,5,22,0.00
2013-9-24,65.3,53.8,46.2,46.5,41.8,38.8,86,65,44,29.50,29.39,16,4,20,0.00
2013-9-25,67.6,54.8,43.9,53.6,46.9,42.3,100,77,51,29.47,29.39,17,2,17,0.00
2013-9-26,62.9,54.3,45.3,54.5,48.1,43.8,100,81,58,29.64,29.47,15,3,20,0.00
2013-9-27,67.4,56.7,50.3,55.9,51.4,47.8,100,84,57,29.76,29.64,9,2,10,0.00
2013-9-28,77.1,57.7,45.7,64.1,51.4,45.7,100,83,37,29.84,29.70,7,2,8,0.00
2013-9-29,75.8,61.9,47.8,59.6,51.9,46.3,100,73,43,29.70,29.55,15,3,17,0.00
2013-9-30,78.4,61.5,48.0,59.4,52.3,47.4,100,74,42,29.56,29.45,15,2,17,0.00
2013-10-1,78.7,61.0,48.0,63.2,55.0,48.0,100,83,48,29.48,29.36,8,1,8,0.00
2013-10-2,80.7,66.6,56.1,64.2,55.4,45.2,100,70,40,29.47,29.33,16,3,19,0.00
2013-10-3,76.2,62.5,51.7,55.3,48.1,42.4,86,61,36,29.61,29.47,7,2,12,0.00
2013-10-4,62.2,55.5,48.2,58.5,52.6,46.8,100,90,72,29.58,29.51,12,1,12,0.00
2013-10-5,61.8,57.0,52.8,52.1,48.5,44.1,96,74,55,29.62,29.55,13,2,13,0.00
2013-10-6,59.7,55.9,53.9,55.5,50.2,44.7,100,82,66,29.62,29.49,20,2,20,0.23
2013-10-7,74.4,62.6,55.6,67.3,57.3,45.4,100,84,63,29.49,29.07,25,6,28,0.92
2013-10-8,64.8,54.2,45.2,46.9,40.3,35.8,80,61,37,29.83,29.37,20,4,21,0.01
2013-10-9,67.7,52.4,38.9,50.6,39.8,30.5,100,67,28,29.93,29.79,16,2,17,0.00
2013-10-10,65.5,52.4,41.0,49.8,43.5,35.6,99,73,51,29.79,29.63,12,1,12,0.00
2013-10-11,50.7,49.3,48.0,49.5,48.3,46.0,100,97,91,29.64,29.61,5,0,5,0.00
2013-10-13,69.8,62.1,53.9,51.8,49.2,47.4,86,63,49,29.89,29.79,18,6,22,0.00
2013-10-14,57.8,54.5,50.9,55.0,51.4,47.7,100,90,69,29.79,29.71,23,6,23,0.04
2013-10-15,66.3,57.1,51.3,63.2,51.0,43.2,100,80,66,29.75,29.56,15,2,16,0.00
2013-10-16,65.2,60.5,57.8,57.3,52.7,48.5,96,76,62,29.57,29.29,22,6,23,0.01
2013-10-17,68.9,60.6,52.4,58.7,51.7,44.0,100,75,44,29.33,29.14,22,6,22,0.17
2013-10-18,62.7,55.3,51.1,58.5,44.9,36.2,100,69,50,29.36,29.08,16,5,23,0.71
2013-10-19,62.1,54.5,44.8,49.3,42.7,39.2,95,65,52,29.37,29.11,17,6,26,0.04
2013-10-20,58.4,51.9,47.2,49.3,39.3,32.9,91,64,39,29.44,29.09,16,7,23,0.00
2013-10-21,62.4,53.2,41.8,43.6,40.4,36.4,90,64,46,29.51,29.34,17,5,20,0.00
2013-10-22,57.0,51.4,42.7,48.2,38.8,29.1,89,63,47,29.33,29.16,20,6,20,0.01
2013-10-23,53.4,45.7,39.2,38.5,33.8,30.6,82,64,44,29.22,29.08,13,4,22,0.00
2013-10-24,46.5,40.4,32.8,37.6,33.3,27.0,90,76,60,29.32,29.12,14,4,23,0.02
2013-10-25,47.0,40.7,36.8,34.4,30.2,26.4,84,67,48,29.56,29.32,13,3,17,0.00
2013-10-26,48.0,42.1,34.4,37.9,33.4,29.0,96,72,49,29.56,29.22,20,6,22,0.00
2013-10-27,51.2,44.2,37.7,38.3,32.9,27.3,73,65,47,29.45,29.18,20,5,20,0.00
2013-10-28,48.0,40.4,30.1,43.0,31.1,21.2,90,70,46,29.81,29.43,24,6,28,0.02
2013-10-29,47.7,34.3,24.7,34.8,26.4,21.6,100,74,43,29.87,29.74,7,1,10,0.00
2013-10-30,49.3,38.3,30.2,37.2,31.6,24.7,91,77,58,29.74,29.59,15,2,16,0.00
2013-10-31,59.4,48.3,36.7,54.8,46.2,33.3,100,92,79,29.63,29.03,25,4,26,0.19
2013-11-1,69.1,61.5,55.2,61.9,51.9,40.2,95,73,39,29.08,28.71,29,8,29,0.37
2013-11-2,55.2,47.4,36.4,47.9,41.6,36.3,100,82,63,29.32,29.05,22,6,23,0.11
2013-11-3,38.1,32.6,27.6,36.6,23.2,18.0,100,69,46,29.89,29.32,22,5,25,0.00
2013-11-4,39.4,30.0,22.4,22.6,20.0,16.9,87,68,44,30.11,29.89,16,2,16,0.00
2013-11-5,50.0,41.0,26.9,35.5,26.8,17.6,86,58,45,30.05,29.83,26,6,26,0.00
2013-11-6,59.4,51.0,44.7,45.5,41.4,35.5,82,70,56,29.84,29.31,23,7,23,0.00
2013-11-7,55.2,46.8,33.4,52.8,41.5,24.3,97,82,60,29.32,29.15,24,5,28,0.13
2013-11-8,43.2,36.2,29.3,35.4,26.9,22.4,94,69,55,29.54,29.26,28,5,28,0.00
2013-11-9,44.1,37.0,29.1,37.0,26.3,22.3,100,66,48,29.60,29.33,17,3,17,0.00
2013-11-10,46.8,41.2,35.7,39.2,36.7,28.8,100,85,64,29.34,29.11,30,8,30,0.05
2013-11-11,45.2,39.3,31.4,36.2,30.4,26.2,100,71,57,29.52,29.26,23,6,26,0.00
2013-11-12,33.4,27.6,20.2,33.0,21.3,17.8,100,78,57,29.68,29.34,20,4,23,0.00
2013-11-13,35.3,26.0,16.1,23.9,18.0,13.9,97,73,45,29.75,29.45,26,4,27,0.00
2013-11-14,45.9,39.3,30.1,31.5,26.0,21.2,73,59,42,29.46,29.42,29,11,29,0.00
2013-11-15,52.7,46.6,39.4,21.4,19.6,16.9,43,34,28,29.59,29.45,34,13,34,0.00
2013-11-16,59.2,50.1,40.8,31.6,26.5,19.0,52,40,31,29.72,29.58,17,5,18,0.00
2013-11-17,58.2,52.6,46.4,54.7,44.8,29.8,98,76,47,29.68,29.11,22,5,23,0.10
2013-11-18,60.4,52.5,40.9,57.3,42.3,27.9,98,70,43,29.11,28.83,30,7,30,0.32
2013-11-19,41.4,32.7,26.4,32.8,21.9,16.9,93,64,57,29.80,29.11,26,8,26,0.00
2013-11-20,37.3,27.9,22.0,24.4,20.2,17.2,100,74,48,30.05,29.80,17,2,18,0.00
2013-11-21,42.0,32.1,17.7,29.3,21.1,14.5,100,68,35,30.04,29.74,20,6,23,0.00
2013-11-22,45.2,41.0,37.3,45.0,39.1,29.2,100,94,66,29.75,29.22,25,6,25,0.12
2013-11-23,44.4,31.9,20.1,40.4,25.0,15.8,100,77,49,29.40,29.20,26,4,26,0.00
2013-11-24,22.1,17.8,13.3,15.9,6.1,-0.7,84,60,45,29.68,29.28,37,11,37,0.16
2013-11-25,29.4,19.2,7.1,17.7,8.6,-0.4,81,63,45,29.78,29.56,22,4,22,0.00
2013-11-26,33.1,30.9,28.6,32.8,28.2,17.2,100,91,58,29.65,29.36,22,6,22,0.00
2013-11-27,36.4,33.4,29.4,34.7,32.7,28.9,100,97,92,29.36,28.81,11,1,11,0.37
2013-11-28,29.1,20.7,14.4,29.1,15.0,8.6,100,80,51,29.83,28.95,25,4,25,0.00
2013-11-29,29.1,18.6,11.3,22.5,13.4,8.8,100,82,46,30.16,29.83,10,0,10,0.00
2013-11-30,27.4,20.2,8.4,18.5,14.1,-69.0,100,79,58,30.17,29.71,25,3,26,0.00
2013-12-1,38.8,32.2,27.2,33.3,28.2,17.7,100,86,67,29.70,29.44,17,3,26,0.00
2013-12-2,38.2,34.5,29.3,37.1,33.5,29.3,100,97,85,29.44,29.30,16,2,16,0.00
2013-12-3,44.1,35.0,29.6,41.1,33.7,29.6,100,95,76,29.42,29.32,9,1,10,0.00
2013-12-4,43.4,32.9,27.5,34.0,29.3,26.2,100,87,62,29.57,29.41,9,1,9,0.00
2013-12-5,54.1,45.9,30.2,52.8,43.5,28.1,99,91,72,29.53,29.26,23,6,23,0.00
2013-12-6,52.6,39.2,33.4,48.5,37.0,28.7,100,92,73,29.57,29.31,14,1,19,0.44
2013-12-7,33.4,29.6,25.6,32.3,22.4,14.6,100,75,52,29.87,29.53,20,4,23,0.01
2013-12-8,30.2,25.0,21.8,20.3,16.8,13.8,83,71,58,29.99,29.84,10,0,13,0.00
2013-12-9,36.8,29.0,23.4,36.1,27.5,18.2,100,95,74,29.84,29.24,23,6,23,0.03
2013-12-10,36.4,29.4,18.4,35.4,21.2,10.4,100,72,57,29.35,29.21,19,5,19,0.01
2013-12-11,28.3,21.7,14.7,23.6,17.4,9.3,100,84,62,29.58,29.35,20,5,20,0.01
2013-12-12,18.1,14.4,5.1,14.3,8.4,2.1,97,78,55,29.71,29.37,25,4,25,0.00
2013-12-13,20.2,12.4,1.7,19.4,10.6,1.7,100,93,71,29.87,29.30,20,4,20,0.00
2013-12-14,9.8,3.8,-2.6,9.8,2.1,-2.6,100,93,77,30.02,29.54,9,0,11,0.00
2013-12-15,23.5,17.9,9.8,23.4,17.9,9.8,100,100,100,29.54,28.98,15,1,16,0.00
2013-12-16,24.0,12.8,1.6,19.6,8.5,-0.2,100,84,51,29.65,29.12,17,1,20,0.00
2013-12-17,17.7,5.6,-5.7,17.7,5.4,-5.7,100,99,90,29.67,29.42,19,1,19,0.00
2013-12-18,28.6,18.7,9.4,27.4,16.3,-69.0,100,95,1,29.43,29.35,14,1,14,0.00
2013-12-19,37.1,31.2,25.9,33.4,27.3,24.0,100,86,68,29.50,29.33,26,8,26,0.01
2013-12-20,40.1,30.5,15.0,36.5,28.0,-69.0,100,92,1,29.51,29.32,19,2,19,0.01
2013-12-21,48.9,31.9,22.3,44.6,30.8,22.3,100,96,79,29.43,29.21,34,5,34,0.06
2013-12-22,28.7,25.7,22.0,28.7,25.7,22.0,100,100,100,29.42,29.19,9,0,13,0.00
2013-12-23,31.2,27.5,25.0,31.0,27.5,25.0,100,100,98,29.62,29.40,2,0,5,0.00
2013-12-24,25.3,16.4,7.3,25.3,10.3,-69.0,100,93,1,29.76,29.59,5,0,7,0.00
2013-12-25,15.3,6.6,0.6,15.3,6.4,0.6,100,99,89,29.98,29.76,1,0,4,0.00
2013-12-26,28.0,22.5,15.6,28.0,22.0,12.7,100,98,81,29.79,29.52,13,2,16,0.18
2013-12-27,32.1,26.5,21.8,27.9,24.8,21.8,100,93,77,29.66,29.58,15,4,20,0.01
2013-12-28,39.4,33.6,25.2,36.1,31.0,24.3,100,90,75,29.57,29.40,27,13,33,0.08
2013-12-29,41.0,36.8,32.4,39.4,33.3,30.7,100,88,68,29.42,29.03,25,8,32,0.26
2013-12-30,38.7,21.9,4.3,38.5,17.8,2.0,100,85,58,29.68,29.01,20,4,24,0.01
2013-12-31,17.4,10.3,4.2,16.9,7.9,-0.1,100,90,79,29.66,29.43,12,2,17,0.00
2014-1-1,21.9,11.4,-2.4,15.7,6.4,-5.8,97,81,52,29.91,29.55,13,3,15,0.00
2014-1-2,-2.4,-6.8,-11.1,-4.3,-7.4,-11.1,100,98,84,29.89,29.46,12,3,15,0.00